Regional Weather Roundup
Issued by NWS Newport/Morehead, NC

Current Version | Previous Version | Text Only | Print | Product List | Glossary Off
Versions: 1 2 3 4 5 6 7 8 9 10 11 12 13 14 15 16 17 18 19 20 21 22 23 24 25 26 27 28 29 30 31 32 33 34 35 36 37 38 39 40 41 42 43 44 45 46 47 48 49 50
000 ASUS42 KMHX 180024 RWRMHX WEATHER ROUNDUP FOR EASTERN NORTH CAROLINA NATIONAL WEATHER SERVICE NEWPORT/MOREHEAD CITY NC 700 PM EST TUE JAN 17 2017 NOTE: "FAIR" INDICATES FEW OR NO CLOUDS BELOW 12,000 FEET WITH NO SIGNIFICANT WEATHER AND/OR OBSTRUCTIONS TO VISIBILITY NCZ015>017-031-032-045>047-102-103-180100- NORTH COAST CITY SKY/WX TMP DP RH WIND PRES REMARKS EDENTON CLOUDY 60 56 88 CALM 30.10F ELIZABETH CITY MOCLDY 58 54 86 S7 30.09R KITTY HAWK NOT AVBL MANTEO CLOUDY 53 51 94 S8 30.11S $$ NCZ045>047-081-094-103-104-180100- CENTRAL COAST CITY SKY/WX TMP DP RH WIND PRES REMARKS FRISCO CLOUDY 60 57 89 SW9 30.13F $$ NCZ095-097-098-100-101-180100- SOUTHERN COAST CITY SKY/WX TMP DP RH WIND PRES REMARKS BEAUFORT CLOUDY 60 58 92 SW6 30.15F CEDAR ISLAND NOT AVBL JACKSONVILLE MOCLDY 61 58 90 S5 30.14F PINEY ISLAND PTCLDY N/A N/A N/A S9 30.14F WILMINGTON PTCLDY 62 57 83 S5 30.15F $$ NCZ011>013-027>030-043-044-078>080-089-090>093-098-180100- COASTAL PLAIN CITY SKY/WX TMP DP RH WIND PRES REMARKS AHOSKIE LGT RAIN 56 54 91 S5 30.07F CLINTON CLOUDY 59 57 92 CALM 30.14S ELIZABETHTOWN CLOUDY 59 56 92 CALM 30.14S GOLDSBORO MOCLDY 61 59 96 S6 30.10F GREENVILLE CLOUDY 61 55 82 S8 30.12S HAVELOCK PTCLDY 60 57 89 S9 30.15F KENANSVILLE CLOUDY 57 54 88 CALM 30.13F KINSTON CLOUDY 61 55 82 S8 30.12F NEW BERN PTCLDY 62 56 80 S7 30.13F RICHLANDS CLOUDY 57 55 93 S6 30.14F ROCKY MOUNT MOCLDY 58 55 90 S9 30.09F WASHINGTON MOCLDY 61 55 81 SW7 30.11S WHITEVILLE N/A 58 56 92 CALM 30.15S $$ AMZ130-135-150-152-154-156-158-170-250-252-270-ANZ085-086-088-633-658-670-180100- MARINE OBSERVATIONS STATION/POSITION TIME TEMP WIND PRES WAVE SWELL AIR SEA DIR/SP/G HT/PER HT/PER (UTC) (F) (DEG/KT/KT) (MB) (FT/S) (FT/S) CHESAPEAKE LIGHT NOT AVBL 64 E VA BEACH 2350 58 56 210/ 16/ 17 1018.2 3/ 8 2/ 8 DUCK 2348 56 44 190/ 11/ 13 1018.4 2 E DUCK 0000 45 N/A 2/ 9 OREGON INLET 2348 51 48 180/ 10/ 12 1019.3 13E OREGON INLT NOT AVBL HATTERAS CG 2348 53 230/ 8/ 11 1019.9 DIAMOND BUOY 2350 70 73 240/ 17/ 21 1020.3 3/10 2/10 CAPE LOOKOUT 0000 64 210/ 9/ 12 1020.7 BEAUFORT LAB 2348 50 220/ 4/ 7 1020.1 30 SE NEW RVR IN 0008 62 63 220/ 10/ 12 1021.4 30 SE NEW RVR IN 2343 63 N/A 2/11 2/11 27 SE WRIGHTSVLE 0008 68 69 200/ 12/ 17 1021.2 5 SE WRIGHTSVLE NOT AVBL 225 S CAPE HAT 2350 72 72 220/ 12/ 14 1024.4 3/ 8 2/ 8 41 SE CHARLESTON 2350 70 71 210/ 10/ 10 1022.1 2/ 8 2/ 8 $$

USA.gov is the U.S. government's official web portal to all federal, state and local government web resources and services.